Location: Gu�tanj
(46.5431°N, 14.9692°E)
Time: 14:46:24
(UTC+00:00)

Cosmos 2333 Rocket - Pass Details

Date: 03 March 2021
Orbit: 837 x 864 km, 70.8° (Epoch: 19 April)

Event Time Altitude Azimuth Distance (km) Brightness Sun altitude
Rises 20:32:20 0° 245° (WSW) 3,398 5.7 -37.3°
Reaches altitude 10° 20:35:13 10° 259° (WSW) 2,471 5.0 -37.7°
Maximum altitude 20:39:50 25° 313° (NW) 1,660 4.2 -38.3°
Drops below altitude 10° 20:44:30 10° 8° (N) 2,497 4.9 -39.0°
Sets 20:47:26 0° 22° (NNE) 3,441 5.6 -39.3°
